Regional Weather Roundup
Issued by NWS Cleveland, OH

Home | Current Version | Previous Version | Text Only | Print | Product List | Glossary Off
Versions: 1 2 3 4 5 6 7 8 9 10 11 12 13 14 15 16 17 18 19 20 21 22 23 24 25 26 27 28 29 30 31 32 33 34 35 36 37 38 39 40 41 42 43 44 45 46 47 48 49 50

023
ASUS41 KCLE 201510
RWRCLE
OHIO REGIONAL WEATHER ROUNDUP
NATIONAL WEATHER SERVICE WILMINGTON, OH
1100 AM EDT SUN MAY 20 2018

NOTE: "FAIR" INDICATES FEW OR NO CLOUDS BELOW 12,000 FEET WITH NO
SIGNIFICANT WEATHER AND/OR OBSTRUCTIONS TO VISIBILITY.

OHZ001>008-015>018-024>027-034-035-043-044-201600-
   NORTHWEST OHIO

CITY           SKY/WX    TMP DP  RH WIND       PRES   REMARKS
DEFIANCE       CLOUDY    65  57  75 N3        30.13S
FINDLAY        CLOUDY    67  58  72 CALM      30.11F
TOLEDO EXPRESS CLOUDY    66  60  81 NW3       30.13R
TOLEDO EXEC    CLOUDY    62  58  86 E6        30.15R
LIMA           CLOUDY    65  58  78 NE5       30.12S
$$

OHZ009>014-019>023-028>033-038-089-201600-
   NORTHEAST OHIO

CITY           SKY/WX    TMP DP  RH WIND       PRES   REMARKS
CLE-HOPKINS    CLOUDY    58  54  86 N9        30.15R
CLE-LAKEFRONT  CLOUDY    55  53  93 N10       30.12R
CUY CO. ARPT   CLOUDY    57  55  94 N12       30.14R
LORAIN-ELYRIA  CLOUDY    58  51  78 N9        30.14R
ASHTABULA      CLOUDY    55  53  93 NW9       30.12R
AKRON-CANTON   CLOUDY    65  59  81 NW9       30.11R
WOOSTER        CLOUDY    64  60  87 N9        30.12R
MANSFIELD      CLOUDY    62  60  93 N6        30.12R
YOUNGSTOWN     CLOUDY    64  59  83 NW8       30.09R
$$

OHZ042-051>053-060>062-070>072-077>081-201600-
  SOUTHWEST OHIO

CITY           SKY/WX    TMP DP  RH WIND       PRES   REMARKS
CINC-COVINGTON PTSUNNY   77  66  68 W5        30.10R
CINC-LUNKEN    PTSUNNY   80  70  71 CALM      30.09S
HAMILTON       CLOUDY    71  29  21 CALM      30.12R HAZE
DAYTON         PTSUNNY   67  63  87 N8        30.13R
WRIGHT-PAT AFB FAIR      69  62  77 NW7       30.11S
DAYTON GENERAL FAIR      74  63  68 N5        30.10R
WILMINGTON     CLOUDY    72  68  87 N5        30.11R FOG
$$

OHZ036-037-039>041-045>050-054>059-063>069-073>076-082>088-201600-
  CENTRAL AND SOUTHEAST OHIO

CITY           SKY/WX    TMP DP  RH WIND       PRES   REMARKS
COLUMBUS       PTSUNNY   70  60  70 NW8       30.10R
OSU AIRPORT    CLOUDY    66  60  81 NW8       30.11R
BOLTON FIELD   PTSUNNY   66  63  88 NW7       30.12R
RICKENBACK AFB FAIR      70  62  76 MISG      30.10S
NEWARK         FAIR      70  61  73 NW6       30.10R
MARION         CLOUDY    64  58  80 N5        30.12S
LANCASTER      PTSUNNY   72  64  76 W6        30.11R
ZANESVILLE     PTSUNNY   72  63  73 N8        30.09R
NEW PHILLY     CLOUDY    68  61  78 NW7       30.09R
$$




USA.gov is the U.S. government's official web portal to all federal, state and local government web resources and services.